Regional Weather Roundup
Issued by NWS

Home | Current Version | Previous Version | Text Only | Print | Product List | Glossary Off
Versions: 1 2 3 4 5 6 7 8 9 10 11 12 13 14 15 16 17 18 19 20 21 22 23 24 25 26 27 28 29 30 31 32 33 34 35 36 37 38 39 40 41 42 43 44 45 46 47 48 49 50

881
ASUS44 KJAN 210410
RWRMS

MISSISSIPPI HOURLY WEATHER ROUNDUP
NATIONAL WEATHER SERVICE JACKSON MS
1100 PM CDT MON OCT 20 2014

NOTE: "FAIR: INDICATES FEW OR NO CLOUDS BELOW 12,000 FEET WITH NO
SIGNIFICANT WEATHER AND/OR OBSTRUCTIONS TO VISIBILITY.

MSZ001>002-007>008-010>013-018>021-025>028-034>036-210500-
NORTHWEST MISSISSIPPI

CITY           SKY/WX    TMP DP  RH WIND       PRES   REMARKS
CLARKSDALE     FAIR      57  55  94 CALM      30.06S
CLEVELAND      FAIR      58  56  94 CALM      30.05S
GREENWOOD      CLEAR     54  51  90 CALM      30.06R
GREENVILLE     CLEAR     57  53  86 CALM      30.05S
GRENADA          N/A    N/A N/A N/A MISG        N/A
OLIVE BRANCH   CLEAR     52  52 100 CALM      30.05S
OXFORD         FAIR      50  50 100 CALM      30.07S
TUNICA         CLEAR     54  52  94 CALM      30.06S
$$

MSZ003>006-009-014>017-022>024-029>033-037>039-210500-
NORTHEAST MISSISSIPPI

CITY           SKY/WX    TMP DP  RH WIND       PRES   REMARKS
COLUMBUS AFB   CLEAR     51  51  99 CALM      30.05R
CORINTH        FAIR      52  50  93 CALM      30.04S FOG
GOLDN TRIANGLE CLEAR     52  46  82 CALM      30.04S
STARKVILLE     FAIR      52  50  93 CALM      30.05S
TUPELO         CLEAR     55  52  89 CALM      30.04F
$$

MSZ040-058-210500-
CENTRAL MISSISSIPPI

CITY           SKY/WX    TMP DP  RH WIND       PRES   REMARKS
JACKSON INTL   PTCLDY    56  52  86 CALM      30.05S
JACKSON HAWKNS CLEAR     57  51  80 CALM      30.05S
MERIDIAN KEY   CLEAR     53  50  89 CALM      30.05R
MERIDIAN NAS   CLEAR     54  51  90 CALM      30.05R
RAYMOND        FAIR      54  48  82 MISG      30.05S HAZE
VICKSBURG      CLEAR     51  50  96 CALM      30.05F
$$

MSZ059>079-210500-
SOUTH MISSISSIPPI

CITY           SKY/WX    TMP DP  RH WIND       PRES   REMARKS
BROOKHAVEN     FAIR      54  52  94 CALM      30.07R
COLUMBIA         N/A    N/A N/A N/A MISG        N/A
HATTIESBURG    CLEAR     55  53  93 CALM      30.05S
MCCOMB         CLEAR     56  52  86 CALM      30.05R
NATCHEZ        CLEAR     55  52  88 CALM      30.06S
PINE BELT      CLEAR     54  48  82 CALM      30.05R
$$

MSZ080>082-210500-
COASTAL MISSISSIPPI

CITY           SKY/WX    TMP DP  RH WIND       PRES   REMARKS
BILOXI         CLEAR     63  51  65 VRB1      30.01F
PASCAGOULA     CLEAR     50  48  93 N3        30.02S
GULFPORT       CLEAR     57  53  86 CALM      30.02S
$$



USA.gov is the U.S. government's official web portal to all federal, state and local government web resources and services.